JST460 YSSY-YBNA

Flight info

Callsign JST460
Flight time 0h 57m
Altitude 35000
Route OLSEM Y193 BNA
Aircraft A320/M-SDE3FGHIRWY/LB1

Departure

Time 2026-05-06 13:44
Airport Sydney Kingsford Smith International Airport (YSSY)

Arrival

Time 2026-05-06 14:41
Airport Ballina Byron Gateway Airport (YBNA)
Time Latitude Longitude Altitude Speed Heading
2026-05-06 13:03 -33.93563 151.17759 30 ft 0 kts 281°
2026-05-06 13:29 -33.93567 151.17782 30 ft 4 kts 283°
2026-05-06 13:29 -33.93573 151.17813 30 ft 4 kts 267°
2026-05-06 13:29 -33.93569 151.17829 30 ft 2 kts 190°
2026-05-06 13:29 -33.93589 151.17825 30 ft 4 kts 190°
2026-05-06 13:30 -33.93611 151.17820 30 ft 0 kts 191°
2026-05-06 13:32 -33.93613 151.17820 30 ft 1 kts 191°
2026-05-06 13:32 -33.93632 151.17815 30 ft 6 kts 191°
2026-05-06 13:32 -33.93687 151.17800 30 ft 9 kts 194°
2026-05-06 13:33 -33.93756 151.17779 30 ft 11 kts 194°
2026-05-06 13:33 -33.93836 151.17762 30 ft 11 kts 175°
2026-05-06 13:33 -33.93891 151.17776 29 ft 13 kts 168°
2026-05-06 13:33 -33.93986 151.17801 29 ft 15 kts 167°
2026-05-06 13:34 -33.94098 151.17830 29 ft 17 kts 168°
2026-05-06 13:34 -33.94220 151.17862 30 ft 19 kts 167°
2026-05-06 13:34 -33.94354 151.17896 30 ft 21 kts 168°
2026-05-06 13:34 -33.94455 151.17908 30 ft 11 kts 198°
2026-05-06 13:35 -33.94532 151.17883 30 ft 13 kts 167°
2026-05-06 13:35 -33.94603 151.17902 29 ft 6 kts 168°
2026-05-06 13:35 -33.94639 151.17911 30 ft 6 kts 167°
2026-05-06 13:35 -33.94693 151.17925 30 ft 11 kts 168°
2026-05-06 13:36 -33.94778 151.17948 30 ft 14 kts 167°
2026-05-06 13:36 -33.94878 151.17974 30 ft 16 kts 168°
2026-05-06 13:36 -33.94977 151.18000 30 ft 12 kts 167°
2026-05-06 13:36 -33.95066 151.18023 30 ft 12 kts 168°
2026-05-06 13:37 -33.95100 151.18102 30 ft 13 kts 78°
2026-05-06 13:37 -33.95080 151.18214 30 ft 15 kts 78°
2026-05-06 13:37 -33.95056 151.18346 30 ft 17 kts 77°
2026-05-06 13:37 -33.95043 151.18481 30 ft 14 kts 114°
2026-05-06 13:38 -33.95116 151.18544 30 ft 14 kts 136°
2026-05-06 13:38 -33.95195 151.18630 30 ft 17 kts 137°
2026-05-06 13:38 -33.95303 151.18714 30 ft 20 kts 160°
2026-05-06 13:38 -33.95444 151.18752 30 ft 22 kts 167°
2026-05-06 13:39 -33.95598 151.18793 30 ft 24 kts 168°
2026-05-06 13:39 -33.95767 151.18836 30 ft 26 kts 168°
2026-05-06 13:39 -33.95949 151.18884 30 ft 28 kts 168°
2026-05-06 13:39 -33.96145 151.18934 30 ft 29 kts 168°
2026-05-06 13:40 -33.96317 151.18979 30 ft 26 kts 167°
2026-05-06 13:40 -33.96499 151.19026 30 ft 27 kts 167°
2026-05-06 13:40 -33.96665 151.19069 30 ft 17 kts 167°
2026-05-06 13:40 -33.96769 151.19064 30 ft 15 kts 190°
2026-05-06 13:41 -33.96876 151.19079 30 ft 16 kts 168°
2026-05-06 13:41 -33.96994 151.19110 30 ft 18 kts 168°
2026-05-06 13:41 -33.97092 151.19135 30 ft 12 kts 165°
2026-05-06 13:41 -33.97125 151.19205 30 ft 8 kts 79°
2026-05-06 13:42 -33.97113 151.19268 28 ft 7 kts 77°
2026-05-06 13:42 -33.97099 151.19349 26 ft 13 kts 77°
2026-05-06 13:42 -33.97062 151.19373 27 ft 7 kts 348°
2026-05-06 13:42 -33.97061 151.19372 27 ft 0 kts 348°
2026-05-06 13:43 -33.97040 151.19367 25 ft 12 kts 348°
2026-05-06 13:43 -33.96732 151.19287 23 ft 79 kts 348°
2026-05-06 13:44 -33.96007 151.19099 28 ft 132 kts 348°
2026-05-06 13:44 -33.95019 151.18848 315 ft 148 kts 348°
2026-05-06 13:44 -33.94006 151.18709 923 ft 148 kts
2026-05-06 13:44 -33.93008 151.19066 1489 ft 153 kts 25°
2026-05-06 13:45 -33.92082 151.19833 1800 ft 175 kts 30°
2026-05-06 13:45 -33.89868 151.21751 2401 ft 218 kts 31°
2026-05-06 13:45 -33.88562 151.22891 2741 ft 244 kts 32°
2026-05-06 13:46 -33.87139 151.24141 3380 ft 259 kts 33°
2026-05-06 13:46 -33.85662 151.25439 4229 ft 266 kts 33°
2026-05-06 13:46 -33.84193 151.26822 5113 ft 273 kts 43°
2026-05-06 13:46 -33.83142 151.28759 5946 ft 284 kts 67°
2026-05-06 13:47 -33.82541 151.31046 6781 ft 289 kts 71°
2026-05-06 13:47 -33.81957 151.33374 7591 ft 293 kts 71°
2026-05-06 13:47 -33.81258 151.35686 8381 ft 296 kts 60°
2026-05-06 13:47 -33.80131 151.37749 9178 ft 296 kts 47°
2026-05-06 13:48 -33.78822 151.39676 9985 ft 299 kts 47°
2026-05-06 13:48 -33.77474 151.41671 10371 ft 318 kts 47°
2026-05-06 13:48 -33.76026 151.43812 10578 ft 340 kts 47°
2026-05-06 13:48 -33.74508 151.46057 11091 ft 350 kts 47°
2026-05-06 13:49 -33.72970 151.48345 11734 ft 354 kts 48°
2026-05-06 13:49 -33.71415 151.50660 12426 ft 358 kts 47°
2026-05-06 13:49 -33.69840 151.53005 13123 ft 361 kts 47°
2026-05-06 13:49 -33.68277 151.55329 13810 ft 365 kts 48°
2026-05-06 13:50 -33.66674 151.57707 14420 ft 368 kts 47°
2026-05-06 13:50 -33.64985 151.60013 15021 ft 368 kts 40°
2026-05-06 13:50 -33.62996 151.61932 15621 ft 367 kts 30°
2026-05-06 13:50 -33.60850 151.63609 16217 ft 369 kts 29°
2026-05-06 13:51 -33.58689 151.65301 16823 ft 372 kts 29°
2026-05-06 13:51 -33.56510 151.67007 17425 ft 375 kts 29°
2026-05-06 13:51 -33.54316 151.68725 18014 ft 378 kts 30°
2026-05-06 13:51 -33.52101 151.70460 18581 ft 382 kts 30°
2026-05-06 13:52 -33.49828 151.72082 19110 ft 382 kts 22°
2026-05-06 13:52 -33.47354 151.73239 19647 ft 381 kts 12°
2026-05-06 13:52 -33.44784 151.74073 20202 ft 383 kts 11°
2026-05-06 13:52 -33.42198 151.74906 20755 ft 386 kts 10°
2026-05-06 13:53 -33.39590 151.75744 21289 ft 389 kts 10°
2026-05-06 13:53 -33.36964 151.76590 21817 ft 393 kts 10°
2026-05-06 13:53 -33.34316 151.77446 22333 ft 396 kts 10°
2026-05-06 13:53 -33.31644 151.78311 22816 ft 399 kts
2026-05-06 13:54 -33.28990 151.79172 23310 ft 402 kts
2026-05-06 13:54 -33.26284 151.80045 23768 ft 405 kts
2026-05-06 13:54 -33.23516 151.80935 24182 ft 407 kts
2026-05-06 13:54 -33.20813 151.81806 24592 ft 409 kts
2026-05-06 13:55 -33.18053 151.82700 25003 ft 411 kts
2026-05-06 13:55 -33.15284 151.83596 25411 ft 413 kts
2026-05-06 13:55 -33.12506 151.84493 25809 ft 415 kts
2026-05-06 13:55 -33.09709 151.85386 26185 ft 417 kts
2026-05-06 13:56 -33.06903 151.86279 26575 ft 418 kts
2026-05-06 13:56 -33.04084 151.87176 26952 ft 420 kts
2026-05-06 13:56 -33.01253 151.88084 27337 ft 422 kts
2026-05-06 13:56 -32.98406 151.88998 27714 ft 424 kts
2026-05-06 13:57 -32.95550 151.89915 28086 ft 426 kts
2026-05-06 13:57 -32.92680 151.90838 28459 ft 428 kts
2026-05-06 13:57 -32.89796 151.91770 28816 ft 430 kts
2026-05-06 13:57 -32.86904 151.92702 29160 ft 432 kts
2026-05-06 13:58 -32.84035 151.93621 29505 ft 434 kts
2026-05-06 13:58 -32.81129 151.94549 29849 ft 436 kts
2026-05-06 13:58 -32.78193 151.95484 30180 ft 437 kts
2026-05-06 13:58 -32.75258 151.96417 30528 ft 437 kts
2026-05-06 13:59 -32.72324 151.97349 30945 ft 436 kts
2026-05-06 13:59 -32.69394 151.98285 31354 ft 435 kts
2026-05-06 13:59 -32.66474 151.99221 31751 ft 434 kts
2026-05-06 13:59 -32.63559 152.00151 32166 ft 434 kts
2026-05-06 14:00 -32.60648 152.01080 32577 ft 433 kts
2026-05-06 14:00 -32.57741 152.02005 32993 ft 432 kts
2026-05-06 14:00 -32.54841 152.02922 33418 ft 431 kts
2026-05-06 14:00 -32.51945 152.03835 33843 ft 430 kts
2026-05-06 14:01 -32.49057 152.04744 34219 ft 429 kts
2026-05-06 14:01 -32.46169 152.05654 34549 ft 429 kts
2026-05-06 14:01 -32.43287 152.06564 34837 ft 429 kts
2026-05-06 14:01 -32.40400 152.07474 35010 ft 430 kts
2026-05-06 14:02 -32.34615 152.09293 35046 ft 435 kts
2026-05-06 14:02 -32.28762 152.11147 35058 ft 436 kts
2026-05-06 14:03 -32.22912 152.13003 35025 ft 435 kts
2026-05-06 14:03 -32.17049 152.14852 35065 ft 436 kts
2026-05-06 14:04 -32.11181 152.16698 35060 ft 437 kts
2026-05-06 14:04 -32.05307 152.18539 35070 ft 437 kts
2026-05-06 14:05 -31.99433 152.20375 35063 ft 437 kts
2026-05-06 14:05 -31.93557 152.22214 35071 ft 437 kts
2026-05-06 14:06 -31.87686 152.24054 35083 ft 436 kts
2026-05-06 14:06 -31.81815 152.25891 35089 ft 436 kts
2026-05-06 14:07 -31.75942 152.27728 35065 ft 436 kts
2026-05-06 14:07 -31.70080 152.29560 35078 ft 436 kts
2026-05-06 14:08 -31.64213 152.31387 35089 ft 436 kts
2026-05-06 14:08 -31.58352 152.33197 35093 ft 436 kts
2026-05-06 14:09 -31.52496 152.35001 35080 ft 436 kts
2026-05-06 14:09 -31.46635 152.36821 35089 ft 436 kts
2026-05-06 14:10 -31.40814 152.38632 35101 ft 436 kts
2026-05-06 14:10 -31.34954 152.40446 35107 ft 436 kts
2026-05-06 14:11 -31.29111 152.42242 35079 ft 435 kts
2026-05-06 14:11 -31.23248 152.44040 35097 ft 436 kts
2026-05-06 14:12 -31.17384 152.45846 35101 ft 435 kts
2026-05-06 14:12 -31.11526 152.47647 35104 ft 435 kts
2026-05-06 14:13 -31.05663 152.49453 35079 ft 436 kts
2026-05-06 14:13 -30.99797 152.51260 35094 ft 436 kts
2026-05-06 14:14 -30.93929 152.53063 35099 ft 436 kts
2026-05-06 14:14 -30.88058 152.54852 35098 ft 436 kts
2026-05-06 14:15 -30.82184 152.56642 35088 ft 436 kts
2026-05-06 14:15 -30.76434 152.59132 35094 ft 450 kts 13°
2026-05-06 14:16 -30.70711 152.62080 35102 ft 450 kts 13°
2026-05-06 14:16 -30.64989 152.65019 35104 ft 450 kts 13°
2026-05-06 14:17 -30.59261 152.67950 35067 ft 450 kts 12°
2026-05-06 14:17 -30.53542 152.70875 35086 ft 449 kts 12°
2026-05-06 14:18 -30.47821 152.73801 35096 ft 450 kts 12°
2026-05-06 14:18 -30.42093 152.76727 35101 ft 449 kts 12°
2026-05-06 14:19 -30.36373 152.79642 34820 ft 448 kts 12°
2026-05-06 14:19 -30.33523 152.81094 34595 ft 447 kts 12°
2026-05-06 14:19 -30.30687 152.82534 34138 ft 449 kts 13°
2026-05-06 14:20 -30.27828 152.83987 33522 ft 448 kts 14°
2026-05-06 14:20 -30.24977 152.85437 32919 ft 447 kts 14°
2026-05-06 14:20 -30.22161 152.86869 32311 ft 445 kts 14°
2026-05-06 14:20 -30.19350 152.88298 31680 ft 444 kts 14°
2026-05-06 14:21 -30.16485 152.89751 31051 ft 442 kts 14°
2026-05-06 14:21 -30.13682 152.91174 30522 ft 438 kts 15°
2026-05-06 14:21 -30.10934 152.92551 29982 ft 433 kts 14°
2026-05-06 14:21 -30.08153 152.93841 29381 ft 429 kts 13°
2026-05-06 14:22 -30.05376 152.95044 28791 ft 424 kts 12°
2026-05-06 14:22 -30.02608 152.96194 28211 ft 421 kts 11°
2026-05-06 14:22 -29.99862 152.97321 27681 ft 417 kts 11°
2026-05-06 14:22 -29.97141 152.98448 27175 ft 414 kts 12°
2026-05-06 14:23 -29.94445 152.99583 26657 ft 411 kts 12°
2026-05-06 14:23 -29.91775 153.00724 26168 ft 408 kts 13°
2026-05-06 14:23 -29.89121 153.01866 25671 ft 406 kts 13°
2026-05-06 14:23 -29.86487 153.03001 25206 ft 404 kts 13°
2026-05-06 14:24 -29.83868 153.04128 24867 ft 398 kts 13°
2026-05-06 14:24 -29.82158 153.04863 24679 ft 394 kts 13°
2026-05-06 14:24 -29.79591 153.05964 24262 ft 393 kts 13°
2026-05-06 14:24 -29.77031 153.07057 23823 ft 392 kts 13°
2026-05-06 14:25 -29.74481 153.08145 23340 ft 392 kts 13°
2026-05-06 14:25 -29.71925 153.09238 22879 ft 389 kts 14°
2026-05-06 14:25 -29.69399 153.10321 22429 ft 386 kts 14°
2026-05-06 14:25 -29.66890 153.11395 21970 ft 384 kts 14°
2026-05-06 14:26 -29.64394 153.12459 21509 ft 381 kts 14°
2026-05-06 14:26 -29.61918 153.13514 21045 ft 379 kts 14°
2026-05-06 14:26 -29.59448 153.14565 20564 ft 378 kts 14°
2026-05-06 14:26 -29.56994 153.15607 20082 ft 376 kts 14°
2026-05-06 14:27 -29.54547 153.16648 19607 ft 373 kts 15°
2026-05-06 14:27 -29.52116 153.17684 19135 ft 372 kts 15°
2026-05-06 14:27 -29.49696 153.18715 18653 ft 370 kts 15°
2026-05-06 14:27 -29.47284 153.19742 18126 ft 369 kts 15°
2026-05-06 14:28 -29.44886 153.20759 17641 ft 366 kts 15°
2026-05-06 14:28 -29.42509 153.21765 17165 ft 362 kts 15°
2026-05-06 14:28 -29.40150 153.22765 16689 ft 359 kts 15°
2026-05-06 14:28 -29.37826 153.23756 16219 ft 356 kts 15°
2026-05-06 14:29 -29.35511 153.24742 15755 ft 353 kts 15°
2026-05-06 14:29 -29.33212 153.25720 15287 ft 351 kts 15°
2026-05-06 14:29 -29.30934 153.26684 14827 ft 348 kts 15°
2026-05-06 14:29 -29.28668 153.27642 14363 ft 346 kts 15°
2026-05-06 14:30 -29.26420 153.28592 13912 ft 343 kts 15°
2026-05-06 14:30 -29.24185 153.29533 13413 ft 340 kts 15°
2026-05-06 14:30 -29.21976 153.30461 12956 ft 337 kts 15°
2026-05-06 14:30 -29.19789 153.31383 12514 ft 333 kts 15°
2026-05-06 14:31 -29.17622 153.32299 12072 ft 331 kts 15°
2026-05-06 14:31 -29.15466 153.33210 11635 ft 329 kts 16°
2026-05-06 14:31 -29.13349 153.34102 11197 ft 328 kts 16°
2026-05-06 14:31 -29.11183 153.35016 10763 ft 327 kts 16°
2026-05-06 14:32 -29.09081 153.35904 10360 ft 325 kts 16°
2026-05-06 14:32 -29.06992 153.36789 10231 ft 314 kts 16°
2026-05-06 14:32 -29.04976 153.37644 10101 ft 304 kts 16°
2026-05-06 14:32 -29.03004 153.38478 9740 ft 303 kts 15°
2026-05-06 14:33 -29.01034 153.39304 9447 ft 299 kts 16°
2026-05-06 14:33 -28.99092 153.40119 8941 ft 297 kts 16°
2026-05-06 14:33 -28.97160 153.40929 8400 ft 295 kts 17°
2026-05-06 14:33 -28.95243 153.41736 7904 ft 292 kts 17°
2026-05-06 14:34 -28.93344 153.42534 7402 ft 289 kts 17°
2026-05-06 14:34 -28.91461 153.43323 6855 ft 289 kts 17°
2026-05-06 14:34 -28.89567 153.44115 6249 ft 290 kts 18°
2026-05-06 14:34 -28.87683 153.44904 5763 ft 285 kts 18°
2026-05-06 14:35 -28.85846 153.45676 5419 ft 278 kts 18°
2026-05-06 14:35 -28.84100 153.46608 5079 ft 279 kts 32°
2026-05-06 14:35 -28.82661 153.48051 4766 ft 272 kts 48°
2026-05-06 14:35 -28.81505 153.49668 4585 ft 255 kts 49°
2026-05-06 14:36 -28.80397 153.51178 4332 ft 242 kts 48°
2026-05-06 14:36 -28.79336 153.52602 4175 ft 230 kts 47°
2026-05-06 14:36 -28.78328 153.53948 3996 ft 216 kts 47°
2026-05-06 14:36 -28.77388 153.55205 3858 ft 200 kts 47°
2026-05-06 14:37 -28.76516 153.56375 3625 ft 189 kts 48°
2026-05-06 14:37 -28.75687 153.57487 3415 ft 179 kts 48°
2026-05-06 14:37 -28.75006 153.58618 3197 ft 175 kts 64°
2026-05-06 14:37 -28.74682 153.59946 2974 ft 174 kts 83°
2026-05-06 14:38 -28.74753 153.61316 2743 ft 173 kts 102°
2026-05-06 14:38 -28.75198 153.62577 2507 ft 172 kts 121°
2026-05-06 14:38 -28.75967 153.63608 2282 ft 170 kts 139°
2026-05-06 14:38 -28.76969 153.64296 2049 ft 169 kts 157°
2026-05-06 14:39 -28.78105 153.64598 1826 ft 168 kts 175°
2026-05-06 14:39 -28.79214 153.64498 1617 ft 154 kts 192°
2026-05-06 14:39 -28.80190 153.64063 1407 ft 150 kts 210°
2026-05-06 14:39 -28.81003 153.63349 1211 ft 146 kts 227°
2026-05-06 14:40 -28.81599 153.62429 1017 ft 143 kts 243°
2026-05-06 14:40 -28.81956 153.61381 835 ft 140 kts 255°
2026-05-06 14:40 -28.82225 153.60313 764 ft 141 kts 255°
2026-05-06 14:40 -28.82507 153.59245 551 ft 139 kts 253°
2026-05-06 14:41 -28.82786 153.58192 349 ft 138 kts 254°
2026-05-06 14:41 -28.83060 153.57148 66 ft 136 kts 254°
2026-05-06 14:41 -28.83308 153.56194 15 ft 101 kts 253°
2026-05-06 14:41 -28.83429 153.55736 14 ft 36 kts 253°
2026-05-06 14:42 -28.83497 153.55659 14 ft 12 kts 165°
2026-05-06 14:42 -28.83556 153.55681 14 ft 1 kts 162°
2026-05-06 14:42 -28.83576 153.55688 14 ft 4 kts 163°
2026-05-06 14:42 -28.83606 153.55698 14 ft 6 kts 163°
2026-05-06 14:43 -28.83652 153.55705 13 ft 7 kts 199°
2026-05-06 14:43 -28.83669 153.55696 14 ft 3 kts 206°
2026-05-06 14:43 -28.83677 153.55691 14 ft 0 kts 207°